Flag for Germany Weather past 2 weeks in Celle, Lower Saxony, Germany

50 °F

Passing clouds.

Feels Like: 43 °F
Forecast: 42 / 49 °F
Wind: 23 mph from Southwest

Location: Celle Airport

Current Time: Nov 29, 2015 at 9:26:38 PM

Latest Report: Nov 29, 2015 at 8:20 PM

Visibility: N/A

Pressure: 29.53 "Hg

Humidity: 88%

Dew point: 46 °F

Location of CelleLocation

Historic Weather in Celle — Graph


Celle temperature yesterday

Maximum temperature yesterday: 45 °F (at 1:20 PM)
Minimum temperature yesterday: 34 °F (at 12:20 AM)
Average temperature yesterday: 39 °F

Past Weeks' High & Low Weather Summary

High59 °F (Nov 17, 11:20 PM)100% (Nov 15, 2:20 AM)30.21 "Hg (Nov 15, 2:20 AM)
Low30 °F (Nov 22, 3:20 AM)63% (Nov 18, 8:20 PM)29.33 "Hg (Nov 21, 6:20 AM)
Average43 °F87%29.76 "Hg
* Reported Nov 14 8:20 PM — Nov 29 8:04 PM, Celle, Weather by CustomWeather, © 2015

Note: Actual official high and low records may vary slightly from our data, if they occured in-between our weather recording intervals... More about our weather records


Celle weather history for previous 24 hours

Time TempWeatherWind HumidityBarometerVisibility
8:04 PM
Sun, Nov 29
52 °FLight rain. Partly cloudy.25 mph77%29.53 "HgN/A
7:20 PM50 °FPassing clouds.24 mph82%29.56 "HgN/A
6:20 PM50 °FPartly cloudy.23 mph88%29.59 "HgN/A
5:20 PM48 °FLight rain. Partly cloudy.17 mph87%29.59 "HgN/A
4:20 PM48 °FRain. Mostly cloudy.14 mph87%29.62 "HgN/A
3:20 PM48 °FMore clouds than sun.14 mph82%29.62 "HgN/A
2:20 PM46 °FBroken clouds.16 mph87%29.65 "HgN/A
1:20 PM46 °FBroken clouds.15 mph87%29.68 "HgN/A
12:20 PM45 °FLight rain. Partly sunny.15 mph93%29.68 "HgN/A
11:20 AM48 °FLight rain. More clouds than sun.14 mph82%29.68 "HgN/A
10:20 AM46 °FBroken clouds.17 mph87%29.68 "HgN/A
9:20 AM45 °FSprinkles. Partly sunny.15 mph87%29.68 "Hg6 mi
8:20 AM45 °FBroken clouds.17 mph87%29.68 "HgN/A
7:20 AM45 °FPartly cloudy.20 mph81%29.68 "HgN/A
5:20 AM43 °FQuite cool.17 mph87%29.68 "Hg6 mi
4:20 AM43 °FQuite cool.20 mph87%29.68 "HgN/A
3:20 AM41 °FQuite cool.15 mph87%29.68 "HgN/A
2:20 AM39 °FChilly.15 mph93%29.71 "Hg6 mi
1:20 AM41 °FQuite cool.13 mph81%29.71 "HgN/A
12:20 AM41 °FQuite cool.13 mph76%29.74 "HgN/A
11:20 PM
Sat, Nov 28
41 °FQuite cool.12 mph76%29.80 "HgN/A
10:20 PM41 °FQuite cool.12 mph76%29.83 "HgN/A
9:20 PM41 °FQuite cool.12 mph76%29.86 "HgN/A
Weather by CustomWeather, © 2015

See weather overviewHow to use our weather pages